This demonstration page uses our WeatherBlox Daily Observations layout. Learn more.

Left ArrowRight Arrow

39.51506, -84.39828

Hourly Observations for September 6, 2021

Temp ( °F °C ) Dew Point ( °F °C ) Humidity (%) Winds ( mph kmh ) Pressure ( in mb ) Visibility ( mi km ) Precip ( " mm )
12:15 am 00:15 Clear 59 15 N/A N/A N N/A 29.96 1014 10 16 N/A
12:35 am 00:35 Mostly Cloudy with Mist and Fog 59 15 N/A N/A N N/A 29.96 1014 2 2 0.01 0.25
12:55 am 00:55 Mostly Cloudy with Mist and Fog 59 15 N/A N/A N N/A 29.97 1015 2 3 0.01 0.25
1:15 am 01:15 Mostly Cloudy with Mist and Fog 59 15 N/A N/A N N/A 29.97 1015 1 2 N/A
1:35 am 01:35 Clear with Mist and Fog 57 14 N/A N/A N N/A 29.98 1015 2 3 N/A
1:55 am 01:55 Mostly Cloudy with Mist and Fog 57 14 N/A N/A N N/A 29.98 1015 2 2 N/A
2:15 am 02:15 Mostly Cloudy with Fog 57 14 N/A N/A SW 3 6 29.97 1015 1 1 N/A
2:35 am 02:35 Clear with Mist and Fog 57 14 N/A N/A SW 7 11 29.97 1015 3 4 N/A
2:55 am 02:55 Clear 57 14 N/A N/A SW 5 7 29.97 1015 7 11 N/A
3:15 am 03:15 Clear 57 14 N/A N/A SW 3 6 29.97 1015 10 16 N/A
3:35 am 03:35 Hazy 57 14 N/A N/A N N/A 29.97 1015 4 6 N/A
3:55 am 03:55 Clear 57 14 N/A N/A N N/A 29.97 1015 7 11 N/A
4:15 am 04:15 Mostly Cloudy with Mist and Fog 55 13 N/A N/A N N/A 29.97 1015 2 2 N/A
4:35 am 04:35 Clear with Mist and Fog 55 13 N/A N/A SSW 5 7 29.97 1015 4 6 N/A
4:55 am 04:55 Clear 57 14 N/A N/A SW 3 6 29.97 1015 7 11 N/A
5:15 am 05:15 Clear 57 14 N/A N/A WSW 3 6 29.97 1015 7 11 N/A
5:35 am 05:35 Hazy 57 14 N/A N/A N N/A 29.97 1015 5 8 N/A
5:55 am 05:55 Mostly Cloudy with Fog 55 13 N/A N/A W 3 6 29.98 1015 1 1 N/A
6:15 am 06:15 Mostly Cloudy with Mist and Fog 54 12 N/A N/A N N/A 29.98 1015 1 1 N/A
6:35 am 06:35 Mostly Cloudy with Fog 54 12 N/A N/A N N/A 29.98 1015 1 1 N/A
6:55 am 06:55 Mostly Cloudy with Mist and Fog 54 12 N/A N/A SW 3 6 29.99 1016 1 2 N/A
7:15 am 07:15 Sunny with Mist and Fog 55 13 N/A N/A SW 3 6 29.99 1016 3 5 N/A
7:35 am 07:35 Sunny with Mist and Fog 55 13 N/A N/A SW 3 6 30.00 1016 4 6 N/A
7:55 am 07:55 Hazy 57 14 N/A N/A SSW 5 7 30.00 1016 7 11 N/A
8:15 am 08:15 Sunny 59 15 N/A N/A SW 3 6 30.00 1016 10 16 N/A
8:35 am 08:35 Sunny 59 15 N/A N/A SSW 6 9 30.01 1016 10 16 N/A
8:55 am 08:55 Sunny 61 16 N/A N/A SSW 6 9 30.00 1016 10 16 N/A
9:15 am 09:15 Sunny 63 17.1 62 16.5 96 96 SSW 5 7 30.00 1016 10 16 N/A
9:35 am 09:35 Sunny 65 18.6 62 16.4 87 87 S 5 7 30.00 1016 10 16 N/A
9:55 am 09:55 Sunny 68 20 61 16.1 78 78 SSE 3 6 30.00 1016 10 16 N/A
10:15 am 10:15 Sunny 71 21.5 61 16.3 72 72 SW 5 7 30.00 1016 10 16 N/A
10:35 am 10:35 Sunny 75 23.7 58 14.3 56 56 WSW 7 11 30.00 1016 10 16 N/A
10:55 am 10:55 Sunny 76 24.4 58 14.2 53 53 W 9 15 29.99 1016 10 16 N/A
11:15 am 11:15 Sunny 77 24.9 57 13.9 51 51 WSW 14 22 29.99 1016 10 16 N/A
11:35 am 11:35 Sunny 77 25.1 58 14.2 51 51 W 12 19 29.99 1016 10 16 N/A
11:55 am 11:55 Sunny 78 25.6 59 15.2 53 53 W 10 17 29.99 1016 10 16 N/A
12:15 pm 12:15 Sunny 79 26.1 60 15.8 53 53 W 13 20 29.98 1015 10 16 N/A
12:35 pm 12:35 Sunny 80 26.5 60 15.5 51 51 W 15 24 29.98 1015 10 16 N/A
12:55 pm 12:55 Sunny 80 26.7 58 14.6 47 47 W 14 22 29.98 1015 10 16 N/A
1:15 pm 13:15 Sunny 81 27.2 56 13.5 43 43 W 13 20 29.97 1015 10 16 N/A
1:35 pm 13:35 Sunny 82 27.6 57 14.1 44 44 W 13 20 29.97 1015 10 16 N/A
1:55 pm 13:55 Sunny 82 27.9 56 13.1 40 40 W 12 19 29.96 1014 10 16 N/A
2:15 pm 14:15 Sunny 82 28 56 13.1 40 40 SW 14 22 29.95 1014 10 16 N/A
2:35 pm 14:35 Sunny 82 27.9 54 12.4 38 38 WSW 13 20 29.95 1014 10 16 N/A
2:55 pm 14:55 Sunny 83 28.4 54 12.2 37 37 WSW 14 22 29.94 1014 10 16 N/A
3:15 pm 15:15 Partly Cloudy 83 28.6 56 13.1 38 38 WSW 15 24 29.93 1013 10 16 N/A
3:35 pm 15:35 Partly Cloudy 83 28.5 56 13.4 39 39 W 12 19 29.93 1013 10 16 N/A
3:55 pm 15:55 Partly Cloudy 84 28.7 57 13.7 40 40 WSW 12 19 29.91 1013 10 16 N/A
4:15 pm 16:15 Mostly Cloudy 81 27.3 56 13.4 42 42 WSW 12 19 29.92 1013 10 16 N/A
4:35 pm 16:35 Partly Cloudy 83 28.2 57 14 42 42 W 9 15 29.92 1013 10 16 N/A
4:55 pm 16:55 Partly Cloudy 83 28.2 58 14.5 43 43 SW 12 19 29.91 1013 10 16 N/A
5:15 pm 17:15 Cloudy 81 27.1 59 14.9 47 47 WSW 12 19 29.91 1013 10 16 N/A
5:35 pm 17:35 Mostly Cloudy 81 27.2 58 14.4 45 45 SW 9 15 29.91 1013 10 16 N/A
5:55 pm 17:55 Mostly Cloudy 82 27.7 59 15.2 46 46 SW 9 15 29.91 1013 10 16 N/A
6:15 pm 18:15 Partly Cloudy 81 27.2 57 14.1 45 45 WSW 10 17 29.91 1013 10 16 N/A
6:35 pm 18:35 Partly Cloudy 81 27.1 58 14.2 45 45 WSW 10 17 29.90 1012 10 16 N/A
6:55 pm 18:55 Mostly Cloudy 80 26.6 59 15.1 49 49 SW 7 11 29.90 1013 10 16 N/A
7:15 pm 19:15 Mostly Cloudy 78 25.4 60 15.6 55 55 SW 7 11 29.90 1013 10 16 N/A
7:35 pm 19:35 Cloudy 78 25.4 61 16.1 56 56 WSW 6 9 29.90 1013 10 16 N/A
7:55 pm 19:55 Cloudy 76 24.7 61 16.3 60 60 WSW 5 7 29.90 1013 10 16 N/A
8:15 pm 20:15 Cloudy 74 23.3 64 17.8 71 71 WSW 5 7 29.92 1013 10 16 N/A
8:35 pm 20:35 Cloudy 74 23.2 64 17.9 72 72 WSW 3 6 29.92 1013 10 16 N/A
8:55 pm 20:55 Mostly Cloudy 72 22 65 18.2 79 79 WSW 5 7 29.93 1014 10 16 N/A
9:15 pm 21:15 Partly Cloudy 70 21 66 19 88 88 WSW 3 6 29.93 1014 10 16 N/A
9:35 pm 21:35 Partly Cloudy 69 20.4 65 18.6 89 89 WSW 5 7 29.94 1014 10 16 N/A
9:55 pm 21:55 Mostly Cloudy 69 20.5 66 18.8 90 90 WSW 3 6 29.94 1014 10 16 N/A
10:15 pm 22:15 Partly Cloudy 67 19.5 66 19.1 98 98 N N/A 29.95 1014 10 16 N/A
10:35 pm 22:35 Partly Cloudy 68 19.8 66 18.7 93 93 SW 5 7 29.96 1014 10 16 N/A
10:55 pm 22:55 Mostly Cloudy 69 20.3 64 17.5 84 84 SSW 7 11 29.95 1014 10 16 N/A
11:15 pm 23:15 Mostly Cloudy 69 20.5 63 17.2 81 81 SW 7 11 29.95 1014 10 16 N/A
11:35 pm 23:35 Mostly Cloudy 69 20.6 63 17.3 81 81 SW 6 9 29.95 1014 10 16 N/A
11:55 pm 23:55 Cloudy 69 20.8 64 17.6 82 82 SSW 3 6 29.95 1014 10 16 N/A

Powered by AerisWeather